Other Surface Observations
Issued by NWS

Home | Current Version | Previous Version | Text Only | Print | Product List | Glossary On
Versions: 1 2 3 4 5 6 7 8 9 10 11 12 13 14 15 16 17 18 19 20 21 22 23 24 25 26 27 28 29 30 31 32 33 34 35 36 37 38 39 40 41 42 43 44 45 46 47 48 49 50
000
SXUS52 KTAE 170606
OSOTAE
OSOTAE
North Florida/South Alabama/Southwest Georgia Weather Roundup
National Weather Service Tallahassee Florida
100 AM EST TUE JAN 17 2017

Note: "fair" indicates few or no clouds below 12,000 feet with no
significant weather and/or obstructions to visibility.

!FLZ017-115-028-034-025-170700
...North Florida...

CITY           SKY/WX    TMP DP  RH WIND       PRES   REMARKS
TALLAHASSEE    NOT AVBL
APALACHICOLA   PTCLDY    64  61  90 E6        30.20F
PERRY          CLEAR     54  52  94 CALM      30.23F
CROSS CITY     CLEAR     57  54  88 CALM      30.23F
JACKSONVILLE   FOG       57  57 100 CALM      30.25F VSB 1/2
$$

!FLZ112-006-005-002-011-170700
...Florida Panhandle...

CITY           SKY/WX    TMP DP  RH WIND       PRES   REMARKS
MARIANNA       CLOUDY    58  56  93 CALM      30.21F
BONIFAY        MOCLDY    58  57  97 CALM      30.21F
PANAMA CITY NW FAIR      57  55  93 CALM      30.19F
TYNDALL AFB    CLOUDY    62  58  87 E3        30.20F
TYND DRONE APT FAIR      62  59  91 E3        30.20F
DE FUNIAK SPR  FAIR      60  56  87 SE3       30.21F
EGLIN AFB      PTCLDY    63  60  90 SE8       30.19F
DESTIN         CLOUDY    67  64  90 SE9       30.19F
HURLBURT       MOCLDY    66  64  92 SE9       30.16F
CRESTVIEW      CLOUDY    56  54  93 CALM      30.20F
PENSACOLA      CLOUDY    67  65  93 E8        30.16F
$$

!ALZ063-066-170700
...South Alabama...

CITY           SKY/WX    TMP DP  RH WIND       PRES   REMARKS
DOTHAN         CLEAR     60  58  92 SE6       30.24F
OZARK CAIRNS   MOCLDY    60  56  89 SE3       30.19F
FT RUCKER HELI CLEAR     54  52  93 CALM      30.19F
RUCKER HELI 3  NOT AVBL
RUCKER HELI 2  FAIR      61  55  81 CALM      30.20F
FLORALA APT    CLEAR     59  54  83 S3        30.20F
ANDALUSIA      NOT AVBL
TROY           CLEAR     61  56  83 S5        30.20F
EUFALA         FAIR      57  54  89 CALM      30.20F
MOBILE         CLOUDY    66  64  93 SE6       30.16F
$$

!GAZ120>161-170700
...Southwest and South Central Georgia...

CITY           SKY/WX    TMP DP  RH WIND       PRES   REMARKS
THOMASVILLE    FAIR      55  55 100 CALM      30.24S
BAINBRIDGE     CLEAR     55  54  94 CALM      30.23S
MOODY AFB      CLEAR     58  56  92 CALM      30.23F
VALDOSTA       CLOUDY    56  54  93 CALM      30.24F
MOULTRIE       CLEAR     55  54  94 CALM      30.23F
BLAKELY        CLEAR     55  54  94 CALM      30.23F
ALBANY         CLEAR     53  51  93 NW3       30.25F
TIFTON         FAIR      58  56  92 SE6       30.23F
FITZGERALD     FAIR      58  58  99 CALM      30.26F
CORDELE        NOT AVBL
AMERICUS       FAIR      57  48  72 CALM      30.24F
HOMERVILLE     FAIR      59  59 100 CALM      30.26R
$$

!GMZ750-755-770-775-170700
...Coastal and Buoy Obs...

STATION/POSITION TIME  TEMP    WIND        PRES    VSBY  WAVE
                       AIR SEA DIR/SP/G                  HT/PER
                 (UTC) (F)     (DEG/KT/KT) (MB)    (MI)  (FT/S)
KEATON BEACH     0500   62      60/  5/  5 1023.4F
CEDAR KEY        0500   67     100/  5/  6 1024.4F
C TOWER          0500   67     140/  8/  9 1023.6F
APALACHICOLA BUO 0450   71 72   90/ 12/ 14 1023.2          3/ 6
PANAMA CITY BUOY 0550   74 75              1022.0F         5/ 7
MOBILE BUOY      NOT AVBL
ORANGE BCH AL BU 0450   69 66  160/  8/ 10 1021.7          4/ 7
$$




USA.gov is the U.S. government's official web portal to all federal, state and local government web resources and services.